Tracking 19817 objects as of 19-Aug-2019
HD Live streaming from Space Station
objects crossing your sky now

FENGYUN 1C DEB

Track FENGYUN 1C DEB now!
10-day predictions


NORAD ID: 37476
Int'l Code: 1999-025EJW
Perigee: 862.1 km
Apogee: 2,647.4 km
Inclination: 98.9 °
Period: 121.5 minutes
Semi major axis: 8125 km
RCS: 0.002 m2 (small)
Launch date: May 10, 1999
Source: People's Republic of China (PRC)
Launch site: Taiyaun Space Center, China (TSC)

Note: This is SATELLITE DEBRIS
aabbcc
Your satellite tracking list
Your tracking list is empty




NASA's NSSDC Master Catalog

Two Line Element Set (TLE):
1 37476U 99025EJW 19230.96536290 +.00000078 +00000-0 +28243-3 0  9994
2 37476 098.9381 235.9113 1098532 355.0185 004.0620 11.85249393400591
Source of the keplerian elements: AFSPC